Hovedside
METAR-TAF:

METAR-TAF

Lufthavner :

Vardø, Norge

Vardø lufthavn

breddegrad: 70-21N, lengdegrad: 031-03E, høyde over havet: 12 m

Gjeldene værobservasjon

Denne rapporten ble laget for 23 timer og 35 minutter siden, klokken 10:50 UTC
Vind 5 kt fra Øst
Temperatur 5°C
Luftfuktighet 70%
Trykk 1004 hPa
Sikt 10 km eller mer
Brutte skyer i en høyde av 2400 ft

METAR: ENSS 241050Z 09005KT 9999 BKN024 05/M00 Q1004 RMK WIND 500FT 07008KT

Tid: 12:25 (10:25 UTC)


TAF: fraværende

Værobservasjoner og værvarsel for over 4000 flyplasser (METAR- og TAF-rapporter).

Tilgjengelige stasjoner er representert av de røde og gule prikkene på kartet.

Hold musepekeren over prikken for å se navnet på stasjonen.

Klikk så for å se værobservasjoner og -varsler.

For å forandre kartet kan du klikke på den grønne knappen med svart kryss for å zoome inn, på den grønne knappen med strek for å zoome ut, eller på de grønne pilene for å se tilstøtende kart.


METAR-TAF: